| time (UTC) | temp C | wind direction | speed KPH | gust KPH | rain 1hr cm | rain 24hr cm | rain mn cm | humidity % | barometer mb |
| 20260906221648 | 18 | 75 | 6.4 | 14.5 | 0.00 | 1.07 | 0.56 | 66 | 975.9 |
| 20260906221157 | 18 | 118 | 9.7 | 16.1 | 0.00 | 1.07 | 0.56 | 65 | 975.9 |
| 20260906221150 | 18 | 106 | 6.4 | 16.1 | 0.00 | 1.07 | 0.56 | 66 | 975.9 |
| 20260906220148 | 18 | 65 | 6.4 | 16.1 | 0.00 | 1.07 | 0.56 | 64 | 975.8 |
| 20260906215647 | 18 | 65 | 8.0 | 14.5 | 0.00 | 1.07 | 0.56 | 66 | 975.8 |
| 20260906215148 | 18 | 75 | 6.4 | 11.3 | 0.00 | 1.07 | 0.56 | 65 | 975.9 |
| 20260906214647 | 18 | 56 | 1.6 | 9.7 | 0.00 | 1.07 | 0.56 | 68 | 975.9 |
| 20260906214148 | 18 | 56 | 4.8 | 9.7 | 0.00 | 1.07 | 0.56 | 67 | 975.9 |
| 20260906213646 | 18 | 54 | 3.2 | 9.7 | 0.00 | 1.07 | 0.56 | 67 | 975.9 |
| 20260906213149 | 18 | 300 | 3.2 | 6.4 | 0.00 | 1.07 | 0.56 | 68 | 975.9 |
| 20260906212654 | 18 | 299 | 3.2 | 4.8 | 0.00 | 1.07 | 0.56 | 66 | 975.9 |
| 20260906212647 | 18 | 299 | 1.6 | 4.8 | 0.00 | 1.07 | 0.56 | 67 | 976.0 |
| 20260906211646 | 18 | 299 | 1.6 | 4.8 | 0.00 | 1.07 | 0.56 | 66 | 976.0 |
| 20260906211148 | 18 | 299 | 3.2 | 4.8 | 0.00 | 1.07 | 0.56 | 66 | 976.0 |
| 20260906210645 | 18 | 299 | 0.0 | 6.4 | 0.00 | 1.07 | 0.56 | 65 | 976.1 |
| 20260906210148 | 18 | 299 | 3.2 | 6.4 | 0.00 | 1.07 | 0.56 | 65 | 976.1 |
| 20260906205647 | 18 | 299 | 1.6 | 4.8 | 0.00 | 1.07 | 0.56 | 65 | 976.2 |
| 20260906205156 | 18 | 298 | 1.6 | 8.0 | 0.00 | 1.07 | 0.56 | 65 | 976.3 |
| 20260906205149 | 18 | 299 | 3.2 | 8.0 | 0.00 | 1.07 | 0.56 | 64 | 976.2 |
| 20260906204148 | 18 | 299 | 3.2 | 9.7 | 0.00 | 1.07 | 0.56 | 67 | 976.2 |
| 20260906203645 | 18 | 293 | 4.8 | 9.7 | 0.00 | 1.07 | 0.56 | 68 | 976.3 |
| 20260906203148 | 18 | 251 | 3.2 | 8.0 | 0.00 | 1.07 | 0.56 | 68 | 976.3 |
| 20260906202645 | 18 | 196 | 1.6 | 9.7 | 0.00 | 1.07 | 0.56 | 68 | 976.4 |
| 20260906202146 | 18 | 195 | 3.2 | 9.7 | 0.00 | 1.07 | 0.56 | 69 | 976.5 |
| 20260906201646 | 18 | 248 | 3.2 | 8.0 | 0.00 | 1.07 | 0.56 | 66 | 976.4 |
| 20260906201146 | 18 | 288 | 4.8 | 8.0 | 0.00 | 1.07 | 0.56 | 69 | 976.3 |
| 20260906200645 | 18 | 200 | 3.2 | 6.4 | 0.00 | 1.07 | 0.56 | 67 | 976.3 |
| 20260906200147 | 18 | 199 | 1.6 | 4.8 | 0.00 | 1.07 | 0.56 | 66 | 976.3 |
| 20260906195643 | 18 | 199 | 3.2 | 4.8 | 0.00 | 1.07 | 0.56 | 66 | 976.4 |
| 20260906195154 | 18 | 199 | 3.2 | 4.8 | 0.00 | 1.07 | 0.56 | 67 | 976.5 |
| 20260906195147 | 18 | 199 | 3.2 | 4.8 | 0.00 | 1.07 | 0.56 | 67 | 976.4 |
| 20260906194145 | 18 | 197 | 1.6 | 9.7 | 0.00 | 1.07 | 0.56 | 66 | 976.5 |
| 20260906193643 | 18 | 197 | 3.2 | 9.7 | 0.00 | 1.07 | 0.56 | 65 | 976.6 |
| 20260906193146 | 19 | 199 | 1.6 | 6.4 | 0.00 | 1.07 | 0.56 | 64 | 976.4 |
| 20260906192644 | 19 | 197 | 3.2 | 8.0 | 0.00 | 1.07 | 0.56 | 66 | 976.4 |
| 20260906192150 | 19 | 197 | 4.8 | 8.0 | 0.00 | 1.07 | 0.56 | 67 | 976.6 |
| 20260906191648 | 19 | 226 | 3.2 | 6.4 | 0.00 | 1.07 | 0.56 | 67 | 976.4 |
| 20260906191145 | 18 | 226 | 3.2 | 6.4 | 0.00 | 1.07 | 0.56 | 68 | 976.5 |
| 20260906190653 | 18 | 186 | 4.8 | 9.7 | 0.00 | 1.07 | 0.56 | 69 | 976.5 |
| 20260906190144 | 18 | 180 | 3.2 | 9.7 | 0.00 | 1.07 | 0.56 | 68 | 976.7 |
| 20260906185656 | 18 | 268 | 6.4 | 9.7 | 0.00 | 1.07 | 0.56 | 69 | 976.7 |
| 20260906185644 | 18 | 196 | 3.2 | 9.7 | 0.00 | 1.07 | 0.56 | 69 | 976.9 |
| 20260906184644 | 18 | 210 | 3.2 | 9.7 | 0.00 | 1.07 | 0.56 | 70 | 976.9 |
| 20260906184143 | 18 | 281 | 1.6 | 9.7 | 0.00 | 1.07 | 0.56 | 69 | 977.0 |
| 20260906183643 | 18 | 289 | 3.2 | 8.0 | 0.00 | 1.07 | 0.56 | 71 | 977.0 |
| 20260906183144 | 17 | 241 | 4.8 | 8.0 | 0.00 | 1.07 | 0.56 | 75 | 977.0 |
| 20260906182642 | 17 | 240 | 1.6 | 6.4 | 0.00 | 1.07 | 0.56 | 77 | 977.1 |
| 20260906182143 | 17 | 231 | 3.2 | 8.0 | 0.00 | 1.07 | 0.56 | 75 | 977.1 |
| 20260906181641 | 17 | 200 | 3.2 | 8.0 | 0.00 | 1.07 | 0.56 | 76 | 977.1 |
| 20260906181144 | 17 | 197 | 1.6 | 9.7 | 0.00 | 1.07 | 0.56 | 76 | 977.2 |
| 20260906180641 | 17 | 197 | 4.8 | 9.7 | 0.00 | 1.07 | 0.56 | 77 | 977.2 |
| 20260906180142 | 16 | 193 | 3.2 | 11.3 | 0.00 | 1.07 | 0.56 | 79 | 977.2 |
| 20260906175641 | 16 | 279 | 4.8 | 14.5 | 0.00 | 1.07 | 0.56 | 81 | 977.2 |
| 20260906175144 | 16 | 259 | 8.0 | 14.5 | 0.00 | 1.07 | 0.56 | 87 | 977.3 |
| 20260906174641 | 15 | 269 | 3.2 | 9.7 | 0.00 | 1.07 | 0.56 | 87 | 977.1 |
| 20260906174141 | 15 | 254 | 4.8 | 9.7 | 0.00 | 1.07 | 0.56 | 90 | 977.3 |
| 20260906173641 | 15 | 252 | 3.2 | 8.0 | 0.00 | 1.07 | 0.56 | 90 | 977.3 |
| 20260906173310 | 14 | 252 | 4.8 | 9.7 | 0.00 | 1.07 | 0.56 | 94 | 977.4 |
| 20260906173142 | 15 | 320 | 4.8 | 11.3 | 0.00 | 1.07 | 0.56 | 91 | 977.1 |
| 20260906172647 | 14 | 340 | 8.0 | 11.3 | 0.00 | 1.07 | 0.56 | 93 | 977.3 |
| 20260906172640 | 14 | 300 | 8.0 | 11.3 | 0.00 | 1.07 | 0.56 | 92 | 977.1 |
| 20260906171150 | 13 | 309 | 4.8 | 8.0 | 0.00 | 1.07 | 0.56 | 94 | 977.6 |
| 20260906171141 | 13 | 309 | 3.2 | 8.0 | 0.00 | 1.07 | 0.56 | 94 | 977.5 |
| 20260906170141 | 13 | 309 | 6.4 | 8.0 | 0.00 | 1.07 | 0.56 | 94 | 977.7 |
| 20260906165640 | 13 | 309 | 3.2 | 8.0 | 0.00 | 1.07 | 0.56 | 94 | 977.9 |
| 20260906165142 | 13 | 312 | 4.8 | 8.0 | 0.00 | 1.07 | 0.56 | 95 | 978.0 |
| 20260906164647 | 13 | 313 | 3.2 | 9.7 | 0.00 | 1.09 | 0.56 | 94 | 977.9 |
| 20260906164639 | 13 | 312 | 4.8 | 9.7 | 0.00 | 1.09 | 0.56 | 94 | 978.1 |
| 20260906163639 | 13 | 285 | 3.2 | 6.4 | 0.00 | 1.09 | 0.56 | 95 | 977.8 |
| 20260906163140 | 13 | 285 | 3.2 | 6.4 | 0.00 | 1.09 | 0.56 | 95 | 977.8 |
| 20260906162639 | 12 | 285 | 3.2 | 6.4 | 0.00 | 1.09 | 0.56 | 95 | 978.0 |
| 20260906162140 | 12 | 285 | 3.2 | 8.0 | 0.00 | 1.09 | 0.56 | 95 | 978.0 |
| 20260906161638 | 12 | 282 | 4.8 | 8.0 | 0.03 | 1.09 | 0.56 | 95 | 978.1 |
| 20260906161139 | 12 | 281 | 3.2 | 6.4 | 0.03 | 1.09 | 0.56 | 95 | 978.4 |
| 20260906160646 | 12 | 281 | 1.6 | 3.2 | 0.08 | 1.09 | 0.56 | 95 | 978.3 |
| 20260906160639 | 12 | 281 | 3.2 | 4.8 | 0.05 | 1.09 | 0.56 | 95 | 978.4 |
| 20260906155638 | 12 | 281 | 0.0 | 8.0 | 0.10 | 1.09 | 0.56 | 95 | 978.3 |
| 20260906155147 | 12 | 252 | 3.2 | 8.0 | 0.15 | 1.09 | 0.56 | 95 | 978.2 |
| 20260906155140 | 12 | 281 | 3.2 | 8.0 | 0.13 | 1.09 | 0.56 | 95 | 978.1 |
| 20260906154146 | 11 | 251 | 3.2 | 8.0 | 0.20 | 1.09 | 0.56 | 95 | 978.0 |
| 20260906154139 | 12 | 252 | 3.2 | 8.0 | 0.18 | 1.09 | 0.56 | 95 | 978.3 |
| 20260906153139 | 11 | 251 | 4.8 | 11.3 | 0.23 | 1.09 | 0.56 | 95 | 978.2 |
| 20260906152637 | 11 | 268 | 6.4 | 11.3 | 0.25 | 1.09 | 0.56 | 95 | 977.8 |
| 20260906152138 | 11 | 285 | 8.0 | 11.3 | 0.25 | 1.09 | 0.56 | 95 | 978.0 |
| 20260906151637 | 11 | 14 | 3.2 | 6.4 | 0.25 | 1.07 | 0.53 | 95 | 977.8 |
| 20260906151139 | 11 | 16 | 1.6 | 6.4 | 0.25 | 1.07 | 0.53 | 95 | 977.9 |
| 20260906150637 | 11 | 62 | 3.2 | 6.4 | 0.23 | 1.04 | 0.51 | 95 | 977.6 |
| 20260906150139 | 11 | 80 | 3.2 | 8.0 | 0.23 | 1.02 | 0.48 | 95 | 977.9 |
| 20260906145636 | 11 | 80 | 4.8 | 8.0 | 0.20 | 0.99 | 0.46 | 95 | 977.8 |
| 20260906145145 | 11 | 195 | 3.2 | 4.8 | 0.15 | 0.94 | 0.41 | 95 | 978.4 |
| 20260906145137 | 11 | 66 | 3.2 | 6.4 | 0.18 | 0.97 | 0.43 | 95 | 978.1 |
| 20260906144138 | 11 | 199 | 1.6 | 4.8 | 0.13 | 0.91 | 0.38 | 94 | 978.4 |
| 20260906143638 | 11 | 199 | 3.2 | 4.8 | 0.10 | 0.89 | 0.36 | 94 | 978.5 |
| 20260906143137 | 11 | 199 | 3.2 | 4.8 | 0.08 | 0.86 | 0.33 | 94 | 978.6 |
| 20260906142637 | 11 | 200 | 0.0 | 4.8 | 0.05 | 0.84 | 0.30 | 94 | 979.0 |
| 20260906142137 | 11 | 200 | 1.6 | 4.8 | 0.05 | 0.84 | 0.30 | 94 | 979.0 |
| 20260906141636 | 11 | 200 | 0.0 | 3.2 | 0.03 | 0.81 | 0.28 | 94 | 979.0 |
| 20260906141138 | 11 | 200 | 1.6 | 3.2 | 0.03 | 0.81 | 0.28 | 94 | 978.7 |
| 20260906140636 | 11 | 200 | 1.6 | 3.2 | 0.03 | 0.81 | 0.28 | 94 | 978.5 |
| 20260906140138 | 11 | 200 | 1.6 | 4.8 | 0.00 | 0.79 | 0.25 | 94 | 978.7 |
| 20260906135635 | 11 | 200 | 1.6 | 6.4 | 0.00 | 0.79 | 0.25 | 94 | 978.7 |
| 20260906135136 | 11 | 199 | 3.2 | 8.0 | 0.00 | 0.79 | 0.25 | 94 | 979.0 |
| 20260906134635 | 11 | 200 | 1.6 | 8.0 | 0.00 | 0.79 | 0.25 | 94 | 979.2 |
| 20260906134136 | 11 | 196 | 3.2 | 8.0 | 0.00 | 0.79 | 0.25 | 94 | 979.1 |
| 20260906133635 | 11 | 195 | 3.2 | 14.5 | 0.00 | 0.79 | 0.25 | 94 | 979.1 |
| 20260906133137 | 11 | 193 | 6.4 | 14.5 | 0.00 | 0.79 | 0.25 | 94 | 979.0 |
| 20260906132636 | 11 | 196 | 4.8 | 9.7 | 0.00 | 0.79 | 0.25 | 94 | 979.2 |
| 20260906132135 | 11 | 204 | 3.2 | 11.3 | 0.03 | 0.79 | 0.25 | 94 | 979.0 |
| 20260906131635 | 11 | 196 | 6.4 | 11.3 | 0.03 | 0.79 | 0.25 | 94 | 979.1 |
| 20260906131135 | 11 | 230 | 6.4 | 11.3 | 0.03 | 0.79 | 0.25 | 94 | 979.0 |
| 20260906130635 | 11 | 209 | 6.4 | 9.7 | 0.03 | 0.79 | 0.25 | 94 | 978.8 |
| 20260906130135 | 11 | 231 | 4.8 | 9.7 | 0.03 | 0.79 | 0.25 | 94 | 978.6 |
| 20260906125633 | 11 | 255 | 8.0 | 9.7 | 0.03 | 0.79 | 0.25 | 94 | 978.4 |
| 20260906125135 | 12 | 234 | 4.8 | 8.0 | 0.05 | 0.79 | 0.25 | 94 | 978.1 |
| 20260906124633 | 12 | 285 | 0.0 | 4.8 | 0.05 | 0.79 | 0.25 | 94 | 978.0 |
| 20260906124136 | 12 | 285 | 3.2 | 4.8 | 0.05 | 0.79 | 0.25 | 94 | 978.1 |
| 20260906123633 | 12 | 285 | 3.2 | 6.4 | 0.05 | 0.79 | 0.25 | 94 | 978.2 |
| 20260906123135 | 11 | 285 | 3.2 | 6.4 | 0.08 | 0.79 | 0.25 | 94 | 978.3 |
| 20260906122632 | 11 | 286 | 4.8 | 6.4 | 0.08 | 0.76 | 0.23 | 94 | 978.5 |
| 20260906122134 | 11 | 286 | 3.2 | 6.4 | 0.08 | 0.76 | 0.23 | 94 | 978.6 |
| 20260906121632 | 11 | 286 | 3.2 | 6.4 | 0.08 | 0.76 | 0.23 | 94 | 978.7 |
| 20260906121134 | 11 | 323 | 3.2 | 4.8 | 0.08 | 0.76 | 0.23 | 94 | 978.7 |
| 20260906120633 | 11 | 23 | 3.2 | 4.8 | 0.08 | 0.76 | 0.23 | 94 | 978.6 |
| 20260906120133 | 11 | 25 | 3.2 | 4.8 | 0.08 | 0.76 | 0.23 | 94 | 978.5 |
| 20260906115633 | 11 | 25 | 3.2 | 8.0 | 0.08 | 0.76 | 0.23 | 94 | 978.3 |
| 20260906115133 | 11 | 25 | 3.2 | 8.0 | 0.05 | 0.74 | 0.20 | 94 | 978.2 |
| 20260906114632 | 11 | 56 | 6.4 | 8.0 | 0.05 | 0.74 | 0.20 | 93 | 978.2 |
| 20260906114133 | 11 | 320 | 3.2 | 9.7 | 0.05 | 0.74 | 0.20 | 94 | 978.8 |
| 20260906113632 | 11 | 320 | 8.0 | 9.7 | 0.05 | 0.74 | 0.20 | 94 | 979.2 |
| 20260906113144 | 11 | 42 | 4.8 | 6.4 | 0.00 | 0.69 | 0.15 | 93 | 979.1 |
| 20260906113135 | 11 | 71 | 1.6 | 8.0 | 0.03 | 0.71 | 0.18 | 93 | 979.1 |
| 20260906112134 | 11 | 293 | 3.2 | 3.2 | 0.00 | 0.69 | 0.15 | 93 | 979.4 |
| 20260906111631 | 11 | 293 | 0.0 | 3.2 | 0.00 | 0.69 | 0.15 | 93 | 979.5 |
| 20260906111132 | 11 | 293 | 1.6 | 3.2 | 0.00 | 0.69 | 0.15 | 93 | 979.5 |
| 20260906110631 | 11 | 293 | 1.6 | 4.8 | 0.00 | 0.69 | 0.15 | 93 | 979.4 |
| 20260906110132 | 11 | 293 | 1.6 | 4.8 | 0.00 | 0.69 | 0.15 | 93 | 979.5 |
| 20260906105630 | 11 | 293 | 1.6 | 4.8 | 0.00 | 0.69 | 0.15 | 93 | 979.5 |
| 20260906105132 | 11 | 293 | 3.2 | 4.8 | 0.00 | 0.69 | 0.15 | 93 | 979.7 |
| 20260906104631 | 11 | 295 | 1.6 | 3.2 | 0.00 | 0.69 | 0.15 | 93 | 979.6 |
| 20260906104131 | 11 | 295 | 0.0 | 3.2 | 0.00 | 0.69 | 0.15 | 93 | 979.3 |
| 20260906103631 | 11 | 295 | 1.6 | 3.2 | 0.00 | 0.69 | 0.15 | 93 | 979.4 |
| 20260906103140 | 11 | 293 | 0.0 | 4.8 | 0.00 | 0.69 | 0.15 | 93 | 980.0 |
| 20260906103132 | 11 | 293 | 1.6 | 4.8 | 0.00 | 0.69 | 0.15 | 93 | 979.7 |
| 20260906102131 | 11 | 295 | 1.6 | 4.8 | 0.00 | 0.69 | 0.15 | 93 | 980.1 |
| 20260906101629 | 11 | 295 | 3.2 | 4.8 | 0.00 | 0.69 | 0.15 | 93 | 980.2 |
| 20260906101131 | 11 | 295 | 1.6 | 3.2 | 0.00 | 0.69 | 0.15 | 93 | 980.0 |
| 20260906100629 | 11 | 295 | 1.6 | 4.8 | 0.00 | 0.69 | 0.15 | 93 | 980.0 |
| 20260906100131 | 11 | 295 | 1.6 | 6.4 | 0.00 | 0.69 | 0.15 | 93 | 979.9 |
| 20260906095637 | 11 | 295 | 3.2 | 6.4 | 0.00 | 0.69 | 0.15 | 93 | 980.0 |
| 20260906095629 | 11 | 295 | 1.6 | 6.4 | 0.00 | 0.69 | 0.15 | 93 | 979.9 |
| 20260906094629 | 11 | 295 | 3.2 | 4.8 | 0.00 | 0.69 | 0.15 | 93 | 979.9 |
| 20260906094131 | 11 | 295 | 3.2 | 4.8 | 0.00 | 0.69 | 0.15 | 93 | 980.0 |
| 20260906093628 | 11 | 295 | 1.6 | 3.2 | 0.00 | 0.69 | 0.15 | 93 | 979.8 |
| 20260906093130 | 11 | 295 | 0.0 | 3.2 | 0.00 | 0.69 | 0.15 | 93 | 979.7 |
| 20260906092629 | 11 | 295 | 1.6 | 3.2 | 0.00 | 0.69 | 0.15 | 93 | 979.6 |
| 20260906092129 | 11 | 295 | 1.6 | 4.8 | 0.00 | 0.69 | 0.15 | 93 | 979.9 |
| 20260906091629 | 11 | 295 | 3.2 | 4.8 | 0.00 | 0.69 | 0.15 | 93 | 980.1 |
| 20260906091130 | 11 | 295 | 3.2 | 6.4 | 0.00 | 0.69 | 0.15 | 93 | 980.1 |
| 20260906090758 | 11 | 295 | 3.2 | 4.8 | 0.00 | 0.69 | 0.15 | 93 | 980.1 |
| 20260906090637 | 11 | 295 | 3.2 | 4.8 | 0.00 | 0.69 | 0.15 | 93 | 980.0 |
| 20260906090629 | 11 | 295 | 3.2 | 6.4 | 0.00 | 0.69 | 0.15 | 93 | 980.0 |
| 20260906085136 | 11 | 295 | 0.0 | 0.0 | 0.00 | 0.69 | 0.15 | 93 | 980.1 |
| 20260906085129 | 11 | 295 | 0.0 | 0.0 | 0.00 | 0.69 | 0.15 | 93 | 980.2 |
| 20260906084129 | 11 | 295 | 0.0 | 0.0 | 0.00 | 0.69 | 0.15 | 93 | 980.1 |
| 20260906083628 | 11 | 295 | 0.0 | 0.0 | 0.00 | 0.69 | 0.15 | 93 | 980.4 |
| 20260906083130 | 11 | 295 | 0.0 | 0.0 | 0.00 | 0.69 | 0.15 | 93 | 980.4 |
| 20260906082628 | 11 | 295 | 0.0 | 0.0 | 0.00 | 0.69 | 0.15 | 93 | 980.4 |
| 20260906082129 | 11 | 295 | 0.0 | 0.0 | 0.00 | 0.69 | 0.15 | 93 | 980.4 |
| 20260906081634 | 11 | 295 | 0.0 | 0.0 | 0.00 | 0.69 | 0.15 | 93 | 980.4 |
| 20260906081626 | 11 | 295 | 0.0 | 0.0 | 0.00 | 0.69 | 0.15 | 93 | 980.5 |
| 20260906080627 | 11 | 295 | 0.0 | 1.6 | 0.00 | 0.69 | 0.15 | 93 | 980.5 |
| 20260906080129 | 11 | 295 | 0.0 | 1.6 | 0.00 | 0.69 | 0.15 | 93 | 980.7 |
| 20260906075626 | 11 | 295 | 0.0 | 3.2 | 0.00 | 0.69 | 0.15 | 92 | 980.8 |
| 20260906075127 | 11 | 295 | 1.6 | 3.2 | 0.03 | 0.69 | 0.15 | 92 | 980.8 |
| 20260906074627 | 11 | 295 | 0.0 | 1.6 | 0.05 | 0.69 | 0.15 | 92 | 980.8 |
| 20260906074127 | 11 | 295 | 0.0 | 1.6 | 0.08 | 0.69 | 0.15 | 92 | 980.8 |
| 20260906073633 | 11 | 295 | 0.0 | 3.2 | 0.13 | 0.69 | 0.15 | 92 | 980.7 |
| 20260906073626 | 11 | 295 | 0.0 | 3.2 | 0.10 | 0.69 | 0.15 | 92 | 980.8 |
| 20260906073257 | 11 | 295 | 1.6 | 3.2 | 0.13 | 0.69 | 0.15 | 92 | 980.6 |
| 20260906072128 | 11 | 295 | 0.0 | 1.6 | 0.13 | 0.69 | 0.15 | 92 | 980.7 |
| 20260906071625 | 11 | 295 | 0.0 | 3.2 | 0.15 | 0.69 | 0.15 | 92 | 980.9 |
| 20260906071128 | 11 | 295 | 0.0 | 4.8 | 0.15 | 0.69 | 0.15 | 92 | 980.9 |
| 20260906070633 | 11 | 295 | 0.0 | 3.2 | 0.15 | 0.69 | 0.15 | 92 | 981.1 |
| 20260906070625 | 11 | 295 | 1.6 | 4.8 | 0.15 | 0.69 | 0.15 | 92 | 980.9 |
| 20260906065625 | 11 | 295 | 0.0 | 3.2 | 0.15 | 0.69 | 0.15 | 92 | 981.2 |
| 20260906065126 | 11 | 295 | 1.6 | 3.2 | 0.15 | 0.66 | 0.13 | 91 | 981.1 |
| 20260906064625 | 11 | 295 | 0.0 | 3.2 | 0.15 | 0.64 | 0.10 | 91 | 981.3 |
| 20260906064126 | 11 | 295 | 1.6 | 4.8 | 0.15 | 0.61 | 0.08 | 91 | 981.5 |
| 20260906063625 | 11 | 295 | 0.0 | 4.8 | 0.18 | 0.58 | 0.05 | 91 | 981.6 |
| 20260906063126 | 11 | 295 | 1.6 | 6.4 | 0.20 | 0.56 | 0.03 | 91 | 981.6 |
| 20260906062625 | 11 | 295 | 3.2 | 6.4 | 0.25 | 0.56 | 0.03 | 91 | 981.5 |
| 20260906062125 | 11 | 35 | 3.2 | 4.8 | 0.30 | 0.56 | 0.03 | 91 | 981.5 |
| 20260906061623 | 11 | 49 | 3.2 | 4.8 | 0.33 | 0.53 | 0.00 | 91 | 981.5 |
| 20260906061125 | 11 | 62 | 1.6 | 4.8 | 0.33 | 0.53 | 0.00 | 91 | 981.4 |
| 20260906060623 | 11 | 62 | 1.6 | 8.0 | 0.38 | 0.53 | 0.00 | 90 | 981.3 |
| 20260906060128 | 11 | 65 | 4.8 | 8.0 | 0.51 | 0.53 | 0.00 | 90 | 981.2 |
| 20260906055624 | 11 | 227 | 3.2 | 4.8 | 0.51 | 0.53 | 0.51 | 90 | 981.3 |
| 20260906055126 | 11 | 227 | 3.2 | 4.8 | 0.48 | 0.51 | 0.48 | 89 | 981.4 |
| 20260906054622 | 11 | 227 | 1.6 | 3.2 | 0.46 | 0.48 | 0.46 | 89 | 981.5 |
| 20260906054125 | 11 | 227 | 1.6 | 4.8 | 0.43 | 0.46 | 0.43 | 89 | 981.7 |
| 20260906053622 | 11 | 227 | 3.2 | 6.4 | 0.38 | 0.41 | 0.38 | 89 | 981.8 |
| 20260906053126 | 11 | 227 | 4.8 | 6.4 | 0.33 | 0.36 | 0.33 | 88 | 981.9 |
| 20260906052623 | 11 | 227 | 1.6 | 6.4 | 0.28 | 0.30 | 0.28 | 88 | 981.8 |
| 20260906052124 | 11 | 227 | 3.2 | 8.0 | 0.23 | 0.25 | 0.23 | 88 | 982.1 |
| 20260906051623 | 11 | 258 | 4.8 | 9.7 | 0.18 | 0.20 | 0.20 | 88 | 982.2 |
| 20260906051123 | 12 | 258 | 3.2 | 9.7 | 0.18 | 0.20 | 0.18 | 87 | 981.9 |
| 20260906050623 | 12 | 292 | 6.4 | 8.0 | 0.13 | 0.15 | 0.13 | 87 | 981.8 |
| 20260906050125 | 12 | 333 | 1.6 | 6.4 | 0.00 | 0.03 | 0.00 | 86 | 981.7 |
| 20260906045622 | 12 | 355 | 1.6 | 4.8 | 0.00 | 0.03 | 0.00 | 86 | 981.5 |
| 20260906045122 | 12 | 357 | 1.6 | 6.4 | 0.00 | 0.03 | 0.00 | 86 | 981.5 |
| 20260906044622 | 12 | 355 | 1.6 | 6.4 | 0.00 | 0.03 | 0.00 | 86 | 981.3 |
| 20260906044123 | 11 | 13 | 1.6 | 4.8 | 0.00 | 0.03 | 0.00 | 86 | 981.3 |
| 20260906043621 | 11 | 13 | 0.0 | 3.2 | 0.00 | 0.03 | 0.00 | 86 | 981.2 |
| 20260906043128 | 11 | 13 | 0.0 | 4.8 | 0.00 | 0.03 | 0.00 | 86 | 981.1 |
| 20260906042621 | 11 | 13 | 3.2 | 6.4 | 0.00 | 0.03 | 0.00 | 85 | 981.1 |
| 20260906042132 | 11 | 13 | 1.6 | 4.8 | 0.00 | 0.03 | 0.00 | 85 | 981.2 |
| 20260906042124 | 11 | 13 | 3.2 | 6.4 | 0.00 | 0.03 | 0.00 | 85 | 981.2 |
| 20260906041123 | 11 | 13 | 3.2 | 4.8 | 0.00 | 0.03 | 0.00 | 85 | 981.3 |
| 20260906040622 | 12 | 13 | 0.0 | 4.8 | 0.00 | 0.03 | 0.00 | 85 | 981.1 |
| 20260906040132 | 12 | 13 | 1.6 | 4.8 | 0.00 | 0.03 | 0.00 | 85 | 980.9 |
| 20260906040123 | 12 | 13 | 3.2 | 4.8 | 0.00 | 0.03 | 0.00 | 85 | 980.8 |
| 20260906035123 | 12 | 13 | 1.6 | 4.8 | 0.00 | 0.03 | 0.00 | 85 | 980.8 |
| 20260906034621 | 12 | 13 | 1.6 | 4.8 | 0.00 | 0.03 | 0.00 | 85 | 980.7 |
| 20260906034123 | 12 | 13 | 1.6 | 3.2 | 0.00 | 0.03 | 0.00 | 85 | 980.9 |
| 20260906033620 | 12 | 13 | 0.0 | 3.2 | 0.00 | 0.03 | 0.00 | 85 | 981.2 |
| 20260906033131 | 12 | 13 | 1.6 | 9.7 | 0.00 | 0.03 | 0.00 | 84 | 980.7 |
| 20260906033123 | 12 | 13 | 0.0 | 4.8 | 0.00 | 0.03 | 0.00 | 84 | 980.9 |
| 20260906032123 | 12 | 11 | 3.2 | 9.7 | 0.00 | 0.03 | 0.00 | 83 | 980.4 |
| 20260906031619 | 12 | 0 | 4.8 | 8.0 | 0.00 | 0.03 | 0.00 | 83 | 980.3 |
| 20260906031122 | 12 | 289 | 3.2 | 6.4 | 0.00 | 0.03 | 0.00 | 82 | 980.5 |
| 20260906030619 | 12 | 289 | 3.2 | 6.4 | 0.00 | 0.03 | 0.00 | 82 | 980.5 |
| 20260906030122 | 12 | 271 | 0.0 | 3.2 | 0.00 | 0.03 | 0.00 | 81 | 980.7 |
| 20260906025618 | 12 | 271 | 0.0 | 3.2 | 0.00 | 0.03 | 0.00 | 81 | 980.6 |
| 20260906025121 | 12 | 271 | 0.0 | 3.2 | 0.00 | 0.03 | 0.00 | 81 | 980.6 |
| 20260906024619 | 12 | 271 | 0.0 | 3.2 | 0.00 | 0.03 | 0.00 | 80 | 980.7 |
| 20260906024120 | 13 | 269 | 0.0 | 0.0 | 0.00 | 0.03 | 0.00 | 80 | 980.7 |
| 20260906023618 | 13 | 269 | 0.0 | 4.8 | 0.00 | 0.03 | 0.00 | 79 | 980.6 |
| 20260906023122 | 13 | 269 | 0.0 | 4.8 | 0.00 | 0.03 | 0.00 | 79 | 980.5 |
| 20260906022618 | 13 | 321 | 0.0 | 0.0 | 0.00 | 0.03 | 0.00 | 78 | 980.3 |
| 20260906022121 | 13 | 321 | 0.0 | 0.0 | 0.00 | 0.03 | 0.00 | 78 | 980.1 |
| 20260906021617 | 13 | 321 | 0.0 | 0.0 | 0.00 | 0.03 | 0.00 | 78 | 980.0 |
| 20260906021123 | 13 | 321 | 0.0 | 0.0 | 0.00 | 0.03 | 0.00 | 78 | 979.9 |
| 20260906020625 | 13 | 321 | 0.0 | 4.8 | 0.00 | 0.03 | 0.00 | 77 | 980.1 |
| 20260906020617 | 13 | 321 | 0.0 | 1.6 | 0.00 | 0.03 | 0.00 | 77 | 980.1 |
| 20260906015623 | 13 | 320 | 0.0 | 1.6 | 0.00 | 0.03 | 0.00 | 76 | 980.3 |
| 20260906015617 | 13 | 321 | 0.0 | 4.8 | 0.00 | 0.03 | 0.00 | 77 | 980.1 |
| 20260906014617 | 14 | 319 | 0.0 | 4.8 | 0.00 | 0.03 | 0.00 | 76 | 980.1 |
| 20260906014121 | 14 | 319 | 0.0 | 4.8 | 0.00 | 0.03 | 0.00 | 76 | 980.1 |
| 20260906013616 | 14 | 330 | 0.0 | 16.1 | 0.00 | 0.03 | 0.00 | 76 | 980.1 |
| 20260906013121 | 14 | 321 | 0.0 | 17.7 | 0.00 | 0.03 | 0.00 | 76 | 980.1 |
| 20260906012622 | 14 | 319 | 6.4 | 17.7 | 0.00 | 0.03 | 0.00 | 76 | 980.1 |
| 20260906012616 | 14 | 305 | 8.0 | 17.7 | 0.00 | 0.03 | 0.00 | 76 | 980.1 |
| 20260906011624 | 14 | 353 | 4.8 | 16.1 | 0.00 | 0.03 | 0.00 | 75 | 979.8 |
| 20260906011616 | 14 | 329 | 9.7 | 17.7 | 0.00 | 0.03 | 0.00 | 75 | 980.0 |
| 20260906010616 | 15 | 319 | 3.2 | 16.1 | 0.00 | 0.03 | 0.00 | 75 | 979.9 |
| 20260906010129 | 15 | 350 | 6.4 | 17.7 | 0.00 | 0.03 | 0.00 | 75 | 979.8 |
| 20260906010120 | 15 | 347 | 6.4 | 16.1 | 0.00 | 0.03 | 0.00 | 75 | 979.8 |
| 20260906005121 | 15 | 307 | 0.0 | 17.7 | 0.00 | 0.03 | 0.00 | 75 | 979.9 |
| 20260906004617 | 15 | 329 | 8.0 | 17.7 | 0.00 | 0.03 | 0.00 | 75 | 979.9 |
| 20260906004120 | 15 | 319 | 3.2 | 17.7 | 0.00 | 0.03 | 0.00 | 75 | 979.8 |
| 20260906003616 | 15 | 312 | 4.8 | 17.7 | 0.00 | 0.03 | 0.00 | 73 | 979.8 |
| 20260906003129 | 15 | 305 | 4.8 | 16.1 | 0.00 | 0.03 | 0.00 | 72 | 979.8 |
| 20260906003120 | 15 | 310 | 6.4 | 17.7 | 0.00 | 0.03 | 0.00 | 73 | 979.7 |
| 20260906002120 | 16 | 331 | 0.0 | 16.1 | 0.00 | 0.03 | 0.00 | 72 | 979.9 |
| 20260906001617 | 16 | 264 | 3.2 | 14.5 | 0.00 | 0.03 | 0.00 | 72 | 979.8 |
| 20260906001115 | 16 | 282 | 4.8 | 14.5 | 0.00 | 0.03 | 0.00 | 72 | 979.9 |
| 20260906000614 | 16 | 344 | 0.0 | 14.5 | 0.00 | 0.03 | 0.00 | 72 | 979.8 |
| 20260906000122 | 16 | 323 | 6.4 | 20.9 | 0.00 | 0.03 | 0.00 | 71 | 979.8 |
| 20260906000115 | 16 | 296 | 1.6 | 19.3 | 0.00 | 0.03 | 0.00 | 72 | 979.8 |
| 20260905235740 | 16 | 266 | 3.2 | 20.9 | 0.00 | 0.03 | 0.00 | 71 | 979.8 |
| 20260905234614 | 16 | 285 | 3.2 | 17.7 | 0.00 | 0.03 | 0.00 | 70 | 979.7 |
| 20260905234117 | 16 | 274 | 6.4 | 17.7 | 0.00 | 0.03 | 0.00 | 69 | 979.8 |
| 20260905233616 | 17 | 302 | 1.6 | 17.7 | 0.00 | 0.03 | 0.00 | 69 | 979.8 |
| 20260905233115 | 17 | 302 | 3.2 | 17.7 | 0.00 | 0.03 | 0.00 | 70 | 979.7 |
| 20260905232613 | 17 | 295 | 3.2 | 17.7 | 0.00 | 0.03 | 0.00 | 70 | 979.7 |
| 20260905232114 | 17 | 261 | 6.4 | 17.7 | 0.00 | 0.03 | 0.00 | 70 | 979.7 |
| 20260905231620 | 16 | 298 | 3.2 | 16.1 | 0.00 | 0.03 | 0.00 | 71 | 979.8 |
| 20260905231612 | 17 | 290 | 3.2 | 16.1 | 0.00 | 0.03 | 0.00 | 70 | 979.8 |
| 20260905230613 | 16 | 310 | 3.2 | 16.1 | 0.00 | 0.03 | 0.00 | 72 | 979.8 |
| 20260905230115 | 16 | 303 | 4.8 | 16.1 | 0.00 | 0.03 | 0.00 | 72 | 979.8 |
| 20260905225613 | 16 | 285 | 6.4 | 19.3 | 0.00 | 0.03 | 0.00 | 71 | 979.7 |
| 20260905225113 | 17 | 288 | 8.0 | 19.3 | 0.00 | 0.03 | 0.00 | 70 | 980.0 |
| 20260905224622 | 17 | 282 | 6.4 | 17.7 | 0.00 | 0.03 | 0.00 | 69 | 980.0 |
| 20260905224614 | 17 | 298 | 3.2 | 17.7 | 0.00 | 0.03 | 0.00 | 69 | 980.0 |
| 20260905223620 | 17 | 261 | 6.4 | 16.1 | 0.00 | 0.03 | 0.00 | 70 | 979.9 |
| 20260905223612 | 17 | 300 | 11.3 | 16.1 | 0.00 | 0.03 | 0.00 | 70 | 979.9 |
| 20260905222612 | 17 | 333 | 6.4 | 11.3 | 0.00 | 0.03 | 0.00 | 69 | 979.9 |
| 20260905222114 | 17 | 286 | 4.8 | 8.0 | 0.00 | 0.03 | 0.00 | 69 | 979.9 |